IRB946 OIII-OITT

Flight info

Callsign IRB946
Flight time N/A
Altitude 30000
Route PAROT L125 BUDED R660 RAKED
Aircraft A310/H-SDFGHIM1RTUWXY/LB1

Departure

Time 2026-05-07 20:44
Airport Mehrabad International Airport (OIII)

Arrival

Time N/A
Airport Tabriz International Airport (OITT)
Time Latitude Longitude Altitude Speed Heading
2026-05-07 20:22 35.69087 51.31830 3909 ft 0 kts 49°
2026-05-07 20:33 35.69084 51.31826 3895 ft 4 kts 49°
2026-05-07 20:33 35.69067 51.31801 3894 ft 4 kts 49°
2026-05-07 20:33 35.69049 51.31775 3894 ft 4 kts 50°
2026-05-07 20:33 35.69034 51.31751 3893 ft 3 kts 65°
2026-05-07 20:34 35.69031 51.31734 3893 ft 2 kts 98°
2026-05-07 20:34 35.69033 51.31721 3894 ft 2 kts 108°
2026-05-07 20:34 35.69034 51.31719 3894 ft 0 kts 108°
2026-05-07 20:36 35.69033 51.31722 3893 ft 1 kts 108°
2026-05-07 20:37 35.69026 51.31749 3892 ft 5 kts 108°
2026-05-07 20:37 35.69017 51.31785 3894 ft 8 kts 107°
2026-05-07 20:37 35.68985 51.31892 3889 ft 12 kts 109°
2026-05-07 20:37 35.68955 51.32003 3883 ft 16 kts 108°
2026-05-07 20:38 35.68916 51.32140 3878 ft 18 kts 110°
2026-05-07 20:38 35.68870 51.32297 3873 ft 21 kts 109°
2026-05-07 20:38 35.68818 51.32474 3866 ft 23 kts 108°
2026-05-07 20:38 35.68762 51.32668 3848 ft 25 kts 111°
2026-05-07 20:39 35.68723 51.32800 3845 ft 10 kts 110°
2026-05-07 20:39 35.68694 51.32891 3839 ft 13 kts 112°
2026-05-07 20:39 35.68663 51.33004 3838 ft 15 kts 108°
2026-05-07 20:39 35.68626 51.33139 3837 ft 18 kts 109°
2026-05-07 20:40 35.68581 51.33290 3827 ft 20 kts 109°
2026-05-07 20:40 35.68539 51.33433 3825 ft 12 kts 115°
2026-05-07 20:40 35.68506 51.33481 3821 ft 0 kts 146°
2026-05-07 20:41 35.68485 51.33490 3819 ft 6 kts 177°
2026-05-07 20:41 35.68427 51.33472 3818 ft 9 kts 197°
2026-05-07 20:41 35.68372 51.33449 3818 ft 9 kts 199°
2026-05-07 20:42 35.68302 51.33419 3813 ft 13 kts 200°
2026-05-07 20:42 35.68250 51.33389 3812 ft 6 kts 222°
2026-05-07 20:42 35.68243 51.33362 3812 ft 5 kts 266°
2026-05-07 20:42 35.68247 51.33346 3812 ft 0 kts 291°
2026-05-07 20:43 35.68338 51.33038 3821 ft 70 kts 289°
2026-05-07 20:43 35.68583 51.32211 3840 ft 134 kts 290°
2026-05-07 20:43 35.68955 51.30925 3955 ft 179 kts 291°
2026-05-07 20:44 35.68976 51.30854 3976 ft 180 kts 291°
2026-05-07 20:44 35.69032 51.30668 4036 ft 182 kts 292°
2026-05-07 20:44 35.69406 51.29387 4224 ft 207 kts 292°
2026-05-07 20:44 35.69744 51.27736 5197 ft 199 kts 276°
2026-05-07 20:45 35.69728 51.26043 5693 ft 192 kts 268°
2026-05-07 20:45 35.69582 51.24425 5661 ft 195 kts 263°
2026-05-07 20:45 35.69272 51.22768 6326 ft 203 kts 252°
2026-05-07 20:45 35.68681 51.21123 6896 ft 224 kts 249°
2026-05-07 20:46 35.68237 51.19149 7368 ft 254 kts 261°
2026-05-07 20:46 35.68085 51.16901 8081 ft 272 kts 268°
2026-05-07 20:46 35.68104 51.14517 9085 ft 279 kts 276°
2026-05-07 20:46 35.68780 51.12304 10417 ft 283 kts 299°
2026-05-07 20:47 35.69851 51.10173 11129 ft 302 kts 295°
2026-05-07 20:47 35.70710 51.07750 11873 ft 315 kts 285°
2026-05-07 20:47 35.71347 51.05126 12725 ft 328 kts 284°
2026-05-07 20:47 35.72129 51.02439 13638 ft 339 kts 286°
2026-05-07 20:48 35.72999 50.99678 14345 ft 355 kts 288°
2026-05-07 20:48 35.74221 50.96942 14998 ft 375 kts 300°
2026-05-07 20:48 35.75987 50.94501 15829 ft 390 kts 311°
2026-05-07 20:48 35.78146 50.92396 16723 ft 401 kts 319°
2026-05-07 20:49 35.80508 50.90515 17607 ft 407 kts 320°
2026-05-07 20:49 35.82515 50.88145 18430 ft 397 kts 299°
2026-05-07 20:49 35.83843 50.85192 19174 ft 394 kts 289°
2026-05-07 20:49 35.84941 50.82143 19903 ft 397 kts 288°
2026-05-07 20:50 35.86083 50.79027 20576 ft 402 kts 289°
2026-05-07 20:50 35.87311 50.75905 21089 ft 407 kts 290°
2026-05-07 20:50 35.88590 50.72765 21669 ft 411 kts 291°
2026-05-07 20:50 35.89906 50.69624 22233 ft 415 kts 291°
2026-05-07 20:51 35.91223 50.66447 22799 ft 418 kts 291°
2026-05-07 20:51 35.92550 50.63239 23351 ft 421 kts 291°
2026-05-07 20:51 35.93891 50.60008 23858 ft 424 kts 291°
2026-05-07 20:51 35.95249 50.56761 24325 ft 427 kts 291°
2026-05-07 20:52 35.96619 50.53499 24802 ft 430 kts 290°
2026-05-07 20:52 35.97985 50.50209 25270 ft 432 kts 290°
2026-05-07 20:52 35.99370 50.46896 25730 ft 435 kts 290°
2026-05-07 20:52 36.00773 50.43577 26197 ft 438 kts 290°
2026-05-07 20:53 36.02182 50.40230 26643 ft 440 kts 289°
2026-05-07 20:53 36.03585 50.36870 27132 ft 442 kts 289°
2026-05-07 20:53 36.05006 50.33489 27581 ft 445 kts 289°
2026-05-07 20:53 36.06431 50.30110 28256 ft 442 kts 288°
2026-05-07 20:54 36.07839 50.26739 28795 ft 441 kts 288°
2026-05-07 20:54 36.09253 50.23385 29501 ft 439 kts 288°
2026-05-07 20:54 36.10682 50.20030 29825 ft 441 kts 287°
2026-05-07 20:54 36.12086 50.16677 29967 ft 439 kts 287°
2026-05-07 20:55 36.13483 50.13324 30049 ft 437 kts 287°
2026-05-07 20:55 36.16266 50.06647 30077 ft 435 kts 287°
2026-05-07 20:56 36.19028 49.99988 30075 ft 434 kts 287°
2026-05-07 20:56 36.22509 49.93723 30095 ft 456 kts 302°
2026-05-07 20:57 36.26936 49.88046 30081 ft 456 kts 302°
2026-05-07 20:57 36.31135 49.82207 30080 ft 453 kts 300°
2026-05-07 20:58 36.35255 49.76287 30094 ft 453 kts 300°
2026-05-07 20:58 36.39379 49.70383 30095 ft 453 kts 301°
2026-05-07 20:59 36.43502 49.64477 30101 ft 453 kts 300°
2026-05-07 20:59 36.47606 49.58606 30113 ft 452 kts 300°
2026-05-07 21:00 36.51724 49.52692 30099 ft 451 kts 301°
2026-05-07 21:00 36.55841 49.46782 30102 ft 451 kts 300°
2026-05-07 21:01 36.59951 49.40870 30111 ft 451 kts 301°
2026-05-07 21:01 36.62997 49.36469 30109 ft 452 kts 301°